Lid_Strength_Index
12 15 19 17 15 14 15 16 17 15 12 12 13 12 12 11 10 10 10 10 9 9 7 6 4 3 4 4 3 3 3 2 1 1 2 2 2 1 2 1 1 1 1 2
15 17 14 13 13 14 15 17 18 14 12 12 12 14 12 12 11 9 10 10 10 9 7 6 5 3 3 3 3 3 3 3 2 1 1 1 1 1 1 1 2 1 2 2
17 15 13 14 15 15 17 19 20 16 13 12 14 17 14 12 11 9 9 9 10 9 8 7 6 5 5 4 4 4 3 3 2 1 1 1 1 1 2 2 2 2 2 1
16 14 15 16 16 15 17 14 15 15 15 20 14 22 20 15 13 10 10 10 10 10 9 8 7 7 6 6 5 4 4 5 3 3 1 2 3 3 2 2 1 1 1 1
18 16 16 16 15 15 16 13 15 15 16 16 18 17 20 15 16 13 11 10 10 10 10 9 8 8 7 7 6 6 5 5 5 3 2 2 3 2 2 2 2 2 2 2
16 14 15 15 14 14 13 15 14 15 15 23 21 20 21 19 16 14 12 11 11 11 11 10 9 8 8 7 8 7 6 7 7 5 4 6 6 5 5 5 5 5 4 4
17 16 14 14 16 14 14 17 24 25 24 22 18 20 19 16 13 13 12 13 12 11 12 11 11 10 9 9 8 8 7 7 7 7 7 7 7 7 7 7 7 7 6 6
20 21 16 14 16 17 16 16 22 26 24 22 17 20 18 13 13 12 13 13 13 13 12 12 12 12 11 10 10 9 9 9 8 8 8 7 7 7 7 7 7 7 8 7
19 19 15 15 14 15 17 18 16 18 21 20 19 17 14 13 14 15 15 14 14 13 13 13 12 12 12 12 11 11 10 10 9 9 8 9 8 8 8 8 8 8 7 7
17 20 17 15 14 14 16 14 19 20 26 25 21 19 18 15 15 15 16 16 15 14 13 13 12 13 12 12 12 12 11 11 10 10 9 9 9 9 8 9 9 8 8 8
16 18 19 16 17 17 16 17 16 17 18 21 22 20 16 14 14 15 15 14 15 14 13 13 13 12 12 13 12 12 12 12 11 11 10 10 10 10 10 10 10 10 10 9
15 17 21 19 17 16 16 17 17 20 21 19 18 19 14 13 14 15 15 14 14 14 13 13 12 13 13 13 13 13 12 12 12 11 11 10 10 11 11 11 11 10 10 10
15 22 27 22 19 17 17 16 15 16 17 19 21 20 14 15 15 15 15 15 14 14 14 13 13 13 13 13 13 13 12 12 12 11 11 11 11 10 11 11 11 11 11 11
13 19 21 23 20 18 18 17 16 16 20 19 18 19 16 16 16 16 15 15 14 14 14 14 13 13 13 12 13 13 13 12 12 11 11 11 11 10 10 10 10 10 10 9
16 23 21 19 18 18 18 18 17 17 17 19 19 18 16 14 15 15 15 15 14 14 14 14 14 13 13 13 12 12 12 12 12 12 11 11 10 10 9 9 9 9 10 10
17 24 21 24 20 19 20 18 17 17 16 17 16 16 14 14 15 16 15 15 15 14 14 13 13 13 13 13 13 12 12 12 11 12 12 12 11 10 10 10 10 9 10 10
18 23 26 27 23 24 24 20 19 18 17 16 18 15 14 15 14 15 15 14 14 14 14 13 13 13 13 13 12 13 12 12 12 12 12 12 12 11 11 10 10 10 10 10
21 24 28 28 28 28 19 20 20 19 17 16 15 15 14 13 13 12 13 13 14 14 13 13 13 13 13 12 12 12 13 13 12 13 13 12 12 12 12 11 11 11 11 11
18 20 30 28 33 23 20 21 20 20 19 17 15 14 14 15 15 15 14 13 13 13 13 13 13 13 13 13 13 13 13 13 13 13 13 12 12 12 12 12 12 12 12 12
19 19 23 34 31 29 20 20 19 19 22 18 15 15 15 16 17 14 14 13 13 13 12 13 13 13 13 13 13 13 13 13 13 13 13 13 13 13 13 13 13 13 13 12
21 21 26 34 31 26 19 19 18 23 19 18 16 15 15 15 13 13 13 14 13 12 12 13 13 13 13 13 13 13 13 13 13 13 13 13 13 13 13 13 13 13 12 12
21 23 24 26 29 26 18 19 20 18 18 17 17 15 14 15 14 14 13 14 13 13 13 13 14 14 14 13 13 13 13 13 14 14 14 16 16 14 13 15 14 14 13 13
22 20 23 21 20 17 18 18 17 17 17 17 15 15 14 14 15 14 14 14 13 13 13 13 14 14 14 14 13 14 14 14 16 18 19 19 18 15 15 15 14 15 14 15
21 19 21 20 17 17 17 17 17 16 16 16 15 14 15 15 15 15 14 14 14 13 13 14 14 15 14 14 14 15 15 16 20 21 20 19 18 17 17 15 14 15 16 15
20 18 20 20 17 18 16 16 15 15 16 16 15 15 14 15 15 14 14 14 13 14 14 14 14 15 15 16 18 20 19 21 20 20 20 19 19 19 18 16 16 15 15 13
19 19 19 19 16 16 15 15 14 15 15 15 16 16 15 15 14 14 14 13 14 15 16 16 16 16 16 18 19 22 25 23 21 19 20 20 19 20 18 18 17 12 11 10